TimeHST,TemperatureF,Dew PointF,Humidity,Sea Level PressureIn,VisibilityMPH,Wind Direction,Wind SpeedMPH,Gust SpeedMPH,PrecipitationIn,Events,Conditions,WindDirDegrees,DateUTC
12:54 AM,66.0,63.0,90,30.01,10.0,Calm,Calm,-,N/A,,Scattered Clouds,0,2013-05-22 10:54:00
1:54 AM,66.0,63.0,90,30.00,10.0,Calm,Calm,-,N/A,,Partly Cloudy,0,2013-05-22 11:54:00
2:54 AM,64.0,64.0,100,29.99,10.0,Calm,Calm,-,N/A,,Scattered Clouds,0,2013-05-22 12:54:00
3:54 AM,64.9,64.9,100,29.98,10.0,Calm,Calm,-,N/A,,Clear,0,2013-05-22 13:54:00
4:54 AM,64.0,63.0,96,29.99,10.0,ENE,4.6,-,N/A,,Clear,70,2013-05-22 14:54:00
5:54 AM,66.0,64.0,93,30.00,10.0,ENE,3.5,-,N/A,,Partly Cloudy,60,2013-05-22 15:54:00
6:54 AM,70.0,66.0,87,30.01,10.0,ENE,3.5,-,N/A,,Clear,60,2013-05-22 16:54:00
7:54 AM,75.0,68.0,79,30.02,10.0,SE,5.8,-,N/A,,Clear,130,2013-05-22 17:54:00
8:54 AM,78.1,66.0,66,30.03,10.0,East,5.8,-,N/A,,Scattered Clouds,80,2013-05-22 18:54:00
9:54 AM,79.0,64.0,60,30.04,10.0,SE,6.9,-,N/A,,Partly Cloudy,140,2013-05-22 19:54:00
10:54 AM,82.9,66.9,58,30.04,10.0,Variable,4.6,-,N/A,,Partly Cloudy,0,2013-05-22 20:54:00
11:54 AM,82.0,68.0,62,30.03,10.0,NNE,9.2,-,N/A,,Partly Cloudy,30,2013-05-22 21:54:00
12:54 PM,81.0,70.0,69,30.03,10.0,North,11.5,-,N/A,,Scattered Clouds,350,2013-05-22 22:54:00
1:54 PM,77.0,66.9,71,30.02,10.0,North,10.4,-,N/A,,Mostly Cloudy,360,2013-05-22 23:54:00
2:54 PM,81.0,64.9,58,30.00,10.0,North,10.4,-,N/A,,Mostly Cloudy,360,2013-05-23 00:54:00
3:54 PM,81.0,68.0,65,30.00,10.0,NNW,9.2,-,N/A,,Partly Cloudy,340,2013-05-23 01:54:00
4:54 PM,78.1,68.0,71,30.00,10.0,NE,6.9,-,N/A,,Mostly Cloudy,40,2013-05-23 02:54:00
5:29 PM,78.8,68.0,69,29.99,10.0,Calm,Calm,-,N/A,,Overcast,0,2013-05-23 03:29:00
5:54 PM,77.0,69.1,76,30.01,10.0,SE,5.8,-,N/A,,Mostly Cloudy,130,2013-05-23 03:54:00
6:54 PM,75.9,69.1,79,30.04,10.0,Calm,Calm,-,N/A,,Scattered Clouds,0,2013-05-23 04:54:00
7:01 PM,75.2,69.8,83,30.03,10.0,Calm,Calm,-,N/A,,Overcast,0,2013-05-23 05:01:00
7:33 PM,75.2,71.6,89,30.04,10.0,Calm,Calm,-,N/A,,Mostly Cloudy,0,2013-05-23 05:33:00
7:54 PM,73.9,71.1,91,30.06,10.0,Calm,Calm,-,N/A,,Overcast,0,2013-05-23 05:54:00
8:54 PM,73.0,71.1,93,30.06,8.0,NNE,3.5,-,N/A,,Mostly Cloudy,20,2013-05-23 06:54:00
9:54 PM,72.0,72.0,100,30.07,7.0,North,3.5,-,N/A,,Clear,360,2013-05-23 07:54:00
10:54 PM,72.0,71.1,97,30.08,8.0,NNE,4.6,-,N/A,,Clear,20,2013-05-23 08:54:00
11:54 PM,69.1,68.0,96,30.07,8.0,ENE,5.8,-,N/A,,Clear,60,2013-05-23 09:54:00